Concordia, KS

10:45 AM CST on December 08, 2019 (GMT -0600)
Blosser Municipal

Weather History for KCNK - August, 2019

Change the Weather History Date:

Saturday, August 3, 2019

  Actual Average Record
Temperature  
Mean Temperature 79 °F 79 °F  
Max Temperature 86 °F 90 °F 110 °F (1918)
Min Temperature 72 °F 67 °F 50 °F (1974)
Degree Days  
Heating Degree Days 0 0  
Month to date heating degree days 0 0  
Since 1 June heating degree days 0 13  
Since 1 July heating degree days 0 0  
Cooling Degree Days 14 14  
Month to date cooling degree days 37 42  
Year to date cooling degree days 942 832  
Since 1 June cooling degree days 842 743  
Growing Degree Days 29 (Base 50)    
Moisture  
Dew Point 72 °F    
Average Humidity 79    
Maximum Humidity 93    
Minimum Humidity 65    
Precipitation  
Precipitation 0.02 in 0.11 in 1.74 in (1985)
Month to date precipitation 1.44 0.33  
Year to date precipitation 23.67 18.29  
Snow  
Snow 0.00 in 0.00 in 0.00 in ()
Month to date snowfall 0.0 0.0  
Year to date snowfall 32.3 13.7  
Since 1 July snowfall 0.0 0.0  
Snow Depth 0.00 in    
Sea Level Pressure  
Sea Level Pressure 30.03 in    
Wind  
Wind Speed 5 mph (East)    
Max Wind Speed 10 mph    
Max Gust Speed 15 mph    
Visibility 8 miles    
Events Rain    
T = Trace of Precipitation, MM = Missing Value Source: NWS Daily Summary

Daily Weather History Graph

Daily Weather History Graph

Search for Another Location

Airport or City:

Astronomy

Aug. 03, 2019 Rise Set
Actual Time 6:31 AM CDT 8:41 PM CDT
Civil Twilight 6:01 AM CDT 9:11 PM CDT
Nautical Twilight 5:25 AM CDT 9:47 PM CDT
Astronomical Twilight 4:45 AM CDT 10:27 PM CDT
Moon 9:25 AM CDT (8/3) 10:48 PM CDT (8/3)
Length of Visible Light 15h 09m
Length of Day
14h 09m
Waxing Crescent, 10% of the Moon is Illuminated
Aug 3
Waxing Crescent
Aug 7
First Quarter
Aug 15
Full
Aug 23
Last Quarter
Aug 30
New

Hourly Weather History & Observations

Time (CDT) Temp. Heat Index Dew Point Humidity Pressure Visibility Wind Dir Wind Speed Gust Speed Precip Events Conditions
12:17 AM 73.0 °F - 71.1 °F 93% 30.06 in 10.0 mi East 3.5 mph - N/A   Overcast
12:35 AM 73.0 °F - 71.1 °F 93% 30.07 in 10.0 mi East 3.5 mph - N/A   Overcast
12:55 AM 73.0 °F - 71.1 °F 93% 30.04 in 10.0 mi ENE 3.5 mph - N/A   Overcast
1:06 AM 73.0 °F - 71.1 °F 93% 30.07 in 10.0 mi ENE 4.6 mph - N/A   Overcast
1:13 AM 73.0 °F - 71.1 °F 93% 30.07 in 10.0 mi East 5.8 mph - N/A   Overcast
1:30 AM 73.0 °F - 71.1 °F 93% 30.07 in 9.0 mi East 4.6 mph - N/A   Overcast
1:46 AM 73.0 °F - 71.1 °F 93% 30.06 in 8.0 mi ESE 4.6 mph - N/A   Overcast
1:55 AM 73.0 °F - 71.1 °F 93% 30.02 in 7.0 mi ESE 4.6 mph - N/A   Overcast
2:26 AM 73.0 °F - 71.1 °F 93% 30.06 in 7.0 mi East 3.5 mph - N/A   Overcast
2:37 AM 73.0 °F - 71.1 °F 93% 30.05 in 7.0 mi ESE 3.5 mph - N/A   Overcast
2:55 AM 73.0 °F - 71.1 °F 93% 30.01 in 5.0 mi East 3.5 mph - N/A   Overcast
3:03 AM 73.0 °F - 71.1 °F 93% 30.06 in 5.0 mi NE 4.6 mph - N/A   Overcast
3:55 AM 73.0 °F - 71.1 °F 93% 30.01 in 5.0 mi East 5.8 mph - N/A   Overcast
4:55 AM 73.0 °F - 71.1 °F 93% 30.01 in 4.0 mi East 4.6 mph - N/A   Overcast
5:55 AM 73.0 °F - 71.1 °F 93% 30.01 in 3.0 mi Calm Calm - 0.02 in Rain Light Rain
6:55 AM 73.0 °F - 71.1 °F 93% 30.02 in 2.5 mi ENE 3.5 mph - 0.00 in   Overcast
7:38 AM 73.0 °F - 71.1 °F 93% 30.06 in 1.8 mi East 3.5 mph - N/A   Overcast
7:55 AM 73.9 °F - 72.0 °F 93% 30.02 in 2.0 mi East 4.6 mph - N/A   Overcast
8:37 AM 73.9 °F - 72.0 °F 93% 30.07 in 3.0 mi ESE 4.6 mph - N/A   Overcast
8:55 AM 73.9 °F - 72.0 °F 93% 30.03 in 5.0 mi ESE 3.5 mph - N/A   Overcast
9:13 AM 75.0 °F - 72.0 °F 90% 30.08 in 6.0 mi East 3.5 mph - N/A   Overcast
9:22 AM 75.0 °F - 72.0 °F 90% 30.08 in 6.0 mi East 3.5 mph - N/A   Overcast
9:32 AM 75.9 °F - 72.0 °F 87% 30.08 in 6.0 mi Calm Calm - N/A   Overcast
9:39 AM 75.9 °F - 72.0 °F 87% 30.08 in 7.0 mi ENE 4.6 mph - N/A   Overcast
9:53 AM 75.2 °F - 71.6 °F 89% 30.08 in 7.0 mi ENE 5.8 mph - N/A   Overcast
9:55 AM 75.9 °F - 72.0 °F 87% 30.04 in 7.0 mi Variable 4.6 mph - N/A   Overcast
10:23 AM 77.0 °F - 72.0 °F 84% 30.08 in 9.0 mi Calm Calm - N/A   Overcast
10:55 AM 78.1 °F - 71.1 °F 79% 30.04 in 10.0 mi Calm Calm - N/A   Overcast
11:55 AM 80.1 °F 83.6 °F 71.1 °F 74% 30.03 in 10.0 mi Calm Calm - N/A   Overcast
12:55 PM 79.0 °F - 72.0 °F 79% 30.03 in 7.0 mi East 4.6 mph - 0.00 in Rain Light Rain
1:06 PM 79.0 °F - 73.9 °F 84% 30.07 in 10.0 mi East 5.8 mph - 0.00 in Rain Light Rain
1:55 PM 82.0 °F 86.7 °F 72.0 °F 71% 30.01 in 10.0 mi East 6.9 mph - 0.00 in   Mostly Cloudy
2:40 PM 82.0 °F 87.4 °F 73.0 °F 74% 30.05 in 10.0 mi East 6.9 mph - N/A   Mostly Cloudy
2:51 PM 82.4 °F 88.2 °F 73.4 °F 74% 30.05 in 10.0 mi ENE 10.4 mph - N/A   Scattered Clouds
2:55 PM 84.0 °F 90.2 °F 73.0 °F 69% 30.00 in 10.0 mi ENE 5.8 mph - N/A   Mostly Cloudy
3:10 PM 84.0 °F 89.6 °F 72.0 °F 67% 30.04 in 10.0 mi ENE 9.2 mph - N/A   Scattered Clouds
3:55 PM 84.0 °F 89.6 °F 72.0 °F 67% 29.99 in 10.0 mi East 8.1 mph - N/A   Partly Cloudy
4:55 PM 84.9 °F 90.7 °F 72.0 °F 65% 29.98 in 10.0 mi ENE 9.2 mph - N/A   Scattered Clouds
5:55 PM 82.9 °F 87.5 °F 71.1 °F 67% 29.97 in 10.0 mi ENE 9.2 mph - N/A   Overcast
6:55 PM 82.9 °F 87.5 °F 71.1 °F 67% 29.95 in 10.0 mi East 6.9 mph - N/A   Clear
7:55 PM 81.0 °F 85.2 °F 72.0 °F 74% 29.96 in 10.0 mi East 6.9 mph - N/A   Clear
8:55 PM 77.0 °F - 71.1 °F 82% 29.98 in 10.0 mi ESE 4.6 mph - N/A   Clear
9:55 PM 73.9 °F - 71.1 °F 91% 30.00 in 10.0 mi SE 4.6 mph - N/A   Clear
10:55 PM 73.0 °F - 71.1 °F 93% 30.01 in 10.0 mi SE 3.5 mph - N/A   Clear
11:55 PM 72.0 °F - 70.0 °F 93% 30.02 in 8.0 mi SSE 3.5 mph - N/A   Clear